Showing default

COSMOS 1690, 16138

Orbit data source: Space-Track

COSMOS 1690, 16138 is a payload satellite owned by GUKOS (CIS) in LEO that was launched on Wed, 09 Oct 1985 UTC via a TSIKLON-3 launch vehicle from the Plesetsk Missile And Space Complex (PKMTR). Payload-class satellites include a variety of spacecraft equipped with specific instruments for various scientific and technological missions. These include communications satellites like Starlink; space stations such as the ISS; scientific satellites like the Hubble; Earth observation satellites from companies like Planet Labs, Umbra, and HawkEye 360; GPS; miniature CubeSats for education and research; and military/defense satellites.

Loading next visibility...
Identifier
16138, 1985-094A
Orbit
LEO
Country
Flag of CISCIS
Related business
Manufacturer
NPO PM
Mission
Spacecraft
Bus & Motor
STRELA-3, Unknown motor
Mass
225 kg wet, 225 kg dry
Launch date (UTC)
1985-10-09 (41 years ago)
Launch vehicle
TSIKLON-3
Launch site
Plesetsk Missile And Space Complex (PKMTR)
Object type
Payload
Rocket body
Debris
Shape & HBR
Unknown
Radar Cross Section
Large (>1 m²)

Expand to show TLE details & history
Last TLE update: 2 days ago

TLE from 2 days ago
0 COSMOS 1690
1 16138U 85094A   26171.44183155  .00000001  00000-0 -52802-4 0  9996
2 16138  82.6065 218.9781 0020426 287.4608  84.4060 12.66106410880402
Epoch: 2026-06-20T10:36Z
TLE epoch observation values (Epoch: 2026-06-20T10:36:14.245Z)
Latitude
11.95739°
Longitude
152.82929°
Altitude
1,398.311 km
Speed
7.162 km/s
True Right ascension
14h 42m 10s
True Declination
11° 53' 37"
Sunlit
Object was in daylight at epoch
Visualization orbit readout
Latitude
Unknown
Longitude
Unknown
Altitude
Unknown
Speed
Unknown
Apparent Right ascension
Unknown
Apparent Declination
Unknown
Sunlit
N/A
Visualization observer readout
Local Sidereal Time
00:50:55
Azimuth
Unknown
Elevation
Unknown
Doppler factor
Unknown
Orbital elements
Apogee altitude
1,411.033 km
Perigee altitude
1,379.278 km
Semi-major axis
7,773.292 km
Eccentricity
0.00204
Inclination
82.6065°
RAAN
218.9781°
Arg. of periapsis
287.4608°
True anomaly
84.63901°
Mean anomaly
84.406°
Eccentric anomaly
84.5225°
Mean motion
3.16691 °/min
Orbital period
113.68 mins
BSTAR
-0.000052802
Loading maneuver chart data...
Computing Atmospheric mass density...
Loading historical data...
Loading historical data...
Loading historical data...
Loading historical data...
Loading historical data...
Loading historical data...
Loading historical data...

Documentation

Showing up to 5 results
|